CW9114 Weather Reports


Display with metric or nautical units.
time (UTC)temp
F
wind
direction
speed
MPH
gust
MPH
rain 1hr
in
rain 24hr
in
rain mn
in
humidity
%
barometer
mb
20260509001524 52 360 0.0 2.0 0.00 0.02 0.01 39 1002.8
20260509000024 52 360 1.0 4.0 0.00 0.02 0.01 37 1002.9
20260508234507 52 360 1.0 3.0 0.00 0.02 0.01 36 1003.1
20260508233012 53 360 1.0 3.0 0.00 0.02 0.01 37 1002.9
20260508231516 53 360 0.0 3.0 0.00 0.02 0.01 36 1002.9
20260508230023 54 360 0.0 5.0 0.00 0.02 0.01 37 1002.9
20260508224535 54 360 0.0 4.0 0.00 0.02 0.01 37 1003.1
20260508223008 54 360 0.0 4.0 0.00 0.02 0.01 36 1003.2
20260508221513 54 360 2.0 4.0 0.00 0.02 0.01 33 1003.3
20260508220017 54 360 2.0 6.0 0.00 0.02 0.01 35 1003.3
20260508214539 54 52 2.0 4.0 0.00 0.02 0.01 34 1003.5
20260508213027 55 360 1.0 6.0 0.00 0.02 0.01 35 1003.4
20260508211512 56 105 1.0 5.0 0.00 0.02 0.01 35 1003.4
20260508210016 57 53 2.0 7.0 0.00 0.02 0.01 34 1003.4
20260508204520 57 97 1.0 5.0 0.00 0.02 0.01 36 1003.5
20260508203026 56 32 4.0 9.0 0.00 0.02 0.01 35 1003.7
20260508201526 56 165 1.0 4.0 0.00 0.02 0.01 37 1003.9
20260508200020 56 360 2.0 8.0 0.00 0.02 0.01 37 1004.1
20260508194518 55 61 0.0 5.0 0.00 0.02 0.01 34 1004.4
20260508193024 55 61 1.0 5.0 0.00 0.02 0.01 37 1004.6
20260508191534 55 129 1.0 5.0 0.00 0.02 0.01 36 1004.6
20260508190046 56 109 1.0 6.0 0.00 0.02 0.01 38 1004.6
20260508184527 56 104 2.0 8.0 0.00 0.02 0.01 37 1004.6
20260508183032 56 54 4.0 8.0 0.00 0.02 0.01 37 1005.1
20260508181523 54 360 2.0 10.0 0.00 0.02 0.01 40 1005.1
20260508180028 55 360 1.0 6.0 0.00 0.02 0.01 42 1005.1
20260508174512 55 360 1.0 7.0 0.00 0.02 0.01 38 1005.3
20260508173016 57 360 5.0 10.0 0.00 0.02 0.01 37 1005.3
20260508171519 56 68 1.0 9.0 0.00 0.02 0.01 39 1005.5
20260508170033 54 360 2.0 8.0 0.00 0.02 0.01 41 1005.7
20260508164536 54 360 1.0 5.0 0.00 0.02 0.01 41 1005.9
20260508163016 54 360 2.0 8.0 0.00 0.03 0.01 42 1005.7
20260508161517 54 360 2.0 7.0 0.00 0.03 0.01 36 1006.1
20260508160025 54 45 1.0 7.0 0.00 0.03 0.01 45 1006.1
20260508154528 55 34 2.0 7.0 0.00 0.03 0.01 43 1006.2
20260508153026 54 360 1.0 9.0 0.00 0.03 0.01 38 1006.3
20260508151516 54 255 1.0 9.0 0.01 0.03 0.01 42 1006.4
20260508150004 53 360 0.0 10.0 0.01 0.03 0.01 41 1006.6
20260508144508 53 360 3.0 9.0 0.01 0.03 0.01 43 1006.7
20260508143009 51 360 1.0 5.0 0.01 0.03 0.01 48 1006.9
20260508141515 50 360 2.0 7.0 0.00 0.02 0.00 54 1007.0
20260508140022 48 245 1.0 5.0 0.00 0.02 0.00 60 1007.1
20260508134506 46 360 0.0 3.0 0.00 0.02 0.00 69 1007.3
20260508133006 44 178 0.0 2.0 0.00 0.02 0.00 75 1007.5
20260508131512 42 360 0.0 2.0 0.00 0.02 0.00 80 1007.5
20260508130029 39 168 0.0 2.0 0.00 0.02 0.00 91 1007.7
20260508124521 37 164 0.0 2.0 0.00 0.02 0.00 94 1007.9
20260508123009 35 240 0.0 3.0 0.00 0.02 0.00 94 1007.9
20260508121508 33 245 0.0 2.0 0.00 0.02 0.00 94 1007.8
20260508120011 32 243 0.0 2.0 0.00 0.02 0.00 94 1007.8
20260508114517 31 360 0.0 2.0 0.00 0.02 0.00 94 1007.8
20260508113022 30 360 0.0 0.0 0.00 0.02 0.00 93 1007.9
20260508111505 30 360 0.0 0.0 0.00 0.02 0.00 93 1007.8
20260508110007 31 360 0.0 1.0 0.00 0.02 0.00 94 1007.7
20260508104513 31 360 0.0 1.0 0.00 0.02 0.00 94 1007.7
20260508103022 30 360 0.0 4.0 0.00 0.02 0.00 94 1007.8
20260508101523 29 360 0.0 3.0 0.00 0.02 0.00 94 1007.9
20260508100004 29 360 0.0 1.0 0.00 0.02 0.00 93 1008.0
20260508094509 29 360 0.0 2.0 0.00 0.02 0.00 93 1008.0
20260508093016 29 360 0.0 1.0 0.00 0.02 0.00 93 1008.0
20260508091525 29 360 0.0 1.0 0.00 0.02 0.00 93 1008.1
20260508090022 29 360 0.0 1.0 0.00 0.02 0.00 93 1008.2
20260508083009 30 360 0.0 1.0 0.00 0.02 0.00 93 1008.1
20260508081517 31 360 0.0 2.0 0.00 0.02 0.00 93 1008.1
20260508080018 31 360 0.0 3.0 0.00 0.02 0.00 94 1008.1
20260508074522 31 360 0.0 4.0 0.00 0.02 0.00 94 1008.2
20260508073032 30 360 0.0 3.0 0.00 0.02 0.00 94 1008.1
20260508071514 30 360 0.0 0.0 0.00 0.02 0.00 93 1008.3
20260508070013 30 360 0.0 0.0 0.00 0.02 0.00 93 1008.4
20260508064525 30 360 0.0 0.0 0.00 0.02 0.00 92 1008.6
20260508063024 30 360 0.0 0.0 0.00 0.02 0.00 92 1008.7
20260508061526 31 360 0.0 0.0 0.00 0.02 0.00 92 1009.0
20260508060011 31 360 0.0 0.0 0.00 0.02 0.00 92 1009.1
20260508054517 32 360 0.0 0.0 0.00 0.02 0.00 91 1009.1
20260508053022 32 360 0.0 0.0 0.00 0.02 0.00 91 1009.4
20260508051524 33 360 0.0 0.0 0.00 0.02 0.00 91 1009.5
20260508050035 33 360 0.0 0.0 0.00 0.02 0.00 91 1009.6
20260508044514 34 360 0.0 2.0 0.00 0.02 0.00 90 1009.6
20260508043019 35 360 0.0 3.0 0.00 0.02 0.00 89 1009.7
20260508041522 36 360 1.0 7.0 0.00 0.02 0.00 88 1009.6
20260508040034 36 360 1.0 9.0 0.00 0.02 0.00 89 1009.4
20260508034527 36 360 0.0 4.0 0.00 0.02 0.02 89 1009.5
20260508033016 36 360 1.0 6.0 0.00 0.02 0.02 89 1009.5
20260508031518 36 360 1.0 5.0 0.00 0.02 0.02 89 1009.6
20260508030026 36 360 0.0 3.0 0.00 0.02 0.02 89 1009.5
20260508024506 36 360 1.0 3.0 0.00 0.02 0.02 89 1009.7
20260508023008 37 360 1.0 4.0 0.00 0.02 0.02 88 1009.8
20260508021514 37 360 0.0 4.0 0.01 0.02 0.02 86 1009.9
20260508020028 38 360 1.0 6.0 0.01 0.02 0.02 85 1009.9
20260508014524 39 360 2.0 8.0 0.01 0.02 0.02 84 1010.3
20260508013007 40 360 2.0 6.0 0.01 0.02 0.02 81 1010.4
20260508011513 42 360 5.0 13.0 0.00 0.01 0.01 73 1010.1
20260508010017 43 360 3.0 9.0 0.00 0.01 0.01 61 1009.9
20260508004520 44 319 0.0 6.0 0.00 0.01 0.01 55 1009.2
20260508003026 44 360 0.0 2.0 0.00 0.01 0.01 56 1009.1